Location: Greenwich
(51.4790°N, 0.0090°E)
Time: 10:56:06
(UTC+01:00)

Vanguard 3 - Pass Details

Date: 23 April 2024
Orbit: 509 x 3232 km, 33.3° (Epoch: 29 May)

Event Time Altitude Azimuth Distance (km) Brightness Sun altitude
Exits shadow 02:39:50 16° 170° (S) 4,897 10.6 -22.2°
Maximum altitude 02:43:36 18° 154° (SSE) 4,500 10.6 -21.9°
Drops below altitude 10° 02:51:10 10° 118° (ESE) 4,458 10.9 -21.3°
Sets 02:55:37 0° 101° (E) 4,978 11.4 -21.0°
